Home   Weather   Fort Nelson   Past weeks

Flag for Canada Past Weather in Fort Nelson, British Columbia, Canada — Yesterday and Last 2 Weeks

Now
-2 °F

Passing clouds.


Feels Like: -2 °F
Forecast: -9 / 0 °F
Wind: 2 mph from Southeast

Location: Fort Nelson

Current Time: Jan 21, 2017 at 3:59:03 am

Latest Report: Jan 21, 2017 at 3:00 am


Visibility: 15 mi

Pressure: 29.90 "Hg

Humidity: 84%

Dew Point: -6 °F

Location of Fort NelsonLocation

Past Weather in Fort Nelson — Graph

°F

Fort Nelson Temperature Yesterday

Maximum temperature yesterday: 5 °F (at 10:00 am)
Minimum temperature yesterday: 0 °F (at 4:00 am)
Average temperature yesterday: 3 °F

High & Low Weather Summary for the Past Weeks

 TemperatureHumidityPressure
High37 °F (Jan 16, 1:00 am)100% (Jan 16, 7:00 am)30.89 "Hg (Jan 16, 7:00 am)
Low-22 °F (Jan 7, 10:00 am)56% (Jan 16, 1:00 am)29.09 "Hg (Jan 16, 10:00 pm)
Average4 °F82%29.83 "Hg
* Reported Jan 6 2:00 am — Jan 21 2:00 am, Fort Nelson, Weather by CustomWeather, © 2017

Note: Actual official high and low records may vary slightly from our data, if they occured in-between our weather recording intervals... More about our weather records

Advertising

Fort Nelson Weather History for the Previous 24 Hours

Scroll right to see more
 ConditionsComfort  
Time TempWeatherWind HumidityBarometerVisibility
2:00 am
Sat, Jan 21
0 °FOvercast.No wind78%29.88 "Hg15 mi
1:00 am1 °FMostly cloudy.No wind71%29.87 "Hg15 mi
12:00 am1 °FMostly cloudy.2 mph71%29.85 "Hg15 mi
11:00 pm
Fri, Jan 20
1 °FOvercast.3 mph71%29.83 "Hg15 mi
10:00 pm1 °FMostly cloudy.5 mph71%29.80 "Hg15 mi
9:00 pm1 °FPassing clouds.9 mph71%29.78 "Hg15 mi
8:00 pm1 °FPartly cloudy.7 mph78%29.75 "Hg15 mi
7:00 pm3 °FOvercast.12 mph72%29.72 "Hg15 mi
6:00 pm3 °FPassing clouds.10 mph72%29.69 "Hg15 mi
5:00 pm3 °FBroken clouds.8 mph78%29.66 "Hg15 mi
4:00 pm5 °FBroken clouds.8 mph78%29.63 "Hg10 mi
3:31 pm5 °FLight snow. Partly sunny.10 mph78%29.61 "Hg5 mi
3:00 pm5 °FLight snow. Overcast.8 mph78%29.59 "Hg2 mi
2:28 pm5 °FLight snow. More clouds than sun.9 mph78%29.58 "Hg2 mi
1:41 pm5 °FLight snow. Overcast.8 mph78%29.56 "Hg3 mi
1:00 pm5 °FLight snow. Cloudy.7 mph78%29.55 "Hg3 mi
12:00 pm5 °FLight snow. More clouds than sun.8 mph85%29.53 "Hg3 mi
11:44 am5 °FLight snow. More clouds than sun.8 mph85%29.52 "Hg3 mi
11:00 am5 °FLight snow. Ice fog.6 mph85%29.52 "Hg1 mi
10:00 am5 °FLight snow. Ice fog.8 mph85%29.48 "Hg2 mi
9:00 am1 °FLight snow. Ice fog.2 mph85%29.46 "Hg1 mi
8:27 am1 °FLight snow. Ice fog.2 mph85%29.46 "Hg1 mi
8:00 am1 °FLight snow. Overcast.2 mph85%29.44 "Hg7 mi
7:00 am1 °FLight snow. Overcast.2 mph78%29.43 "Hg10 mi
6:00 am1 °FOvercast.2 mph85%29.41 "Hg15 mi
5:00 am1 °FMostly cloudy.2 mph85%29.39 "Hg15 mi
4:00 am0 °FPartly cloudy.2 mph84%29.37 "Hg15 mi
3:00 am1 °FPartly cloudy.2 mph85%29.37 "Hg15 mi
Weather by CustomWeather, © 2017

See weather overviewHow to use our weather pages